Location: Newark
(49.3000°N, 9.4667°E)
Time: 14:57:05
(UTC+00:00)

S-56A Canister/Altair - Pass Details

Date: 26 May 2019
Orbit: 633 x 2499 km, 38.9° (Epoch: 15 June)

Event Time Altitude Azimuth Distance (km) Brightness Sun altitude
Exits shadow 00:47:27 26° 194° (SSW) 1,914 8.9 -17.0°
Maximum altitude 00:49:47 32° 159° (SSE) 1,842 9.1 -16.8°
Drops below altitude 10° 00:57:18 10° 101° (ESE) 3,654 11.1 -16.3°
Sets 01:01:24 0° 93° (E) 4,975 12.0 -16.1°
